Battle Creek, MI

10:33 PM EST on February 25, 2017 (GMT -0500)
Kellogg

Weather History for KBTL - January, 2013

Change the Weather History Date:

Sunday, January 27, 2013

  Actual Average Record
Temperature  
Mean Temperature 23 °F 24 °F  
Max Temperature 32 °F 32 °F 55 °F (2002)
Min Temperature 14 °F 16 °F -8 °F (2014)
Degree Days  
Heating Degree Days 42 41  
Month to date heating degree days 996 1121  
Since 1 July heating degree days 3357 3721  
Cooling Degree Days 0 0  
Month to date cooling degree days 0 0  
Year to date cooling degree days 0 0  
Moisture  
Dew Point 20 °F    
Average Humidity 71    
Maximum Humidity 84    
Minimum Humidity 58    
Precipitation  
Precipitation 0.25 in 0.04 in 0.25 in (2013)
Month to date precipitation 1.63 1.50  
Year to date precipitation 1.63 1.50  
Sea Level Pressure  
Sea Level Pressure 30.23 in    
Wind  
Wind Speed 9 mph (SSE)    
Max Wind Speed 30 mph    
Max Gust Speed 39 mph    
Visibility 6 miles    
Events Rain , Snow    
T = Trace of Precipitation, MM = Missing Value Source: NWS Daily Summary

Daily Weather History Graph

Daily Weather History Graph

Search for Another Location

Airport or City:

Trip Planner

Search our weather history database for the weather conditions in past years. The results will help you decide how hot, cold, wet, or windy it might be!

Date:

Astronomy

Jan. 27, 2013 Rise Set
Actual Time 7:59 AM EST 5:49 PM EST
Civil Twilight 7:28 AM EST 6:19 PM EST
Nautical Twilight 6:55 AM EST 6:53 PM EST
Astronomical Twilight 6:21 AM EST 7:26 PM EST
Moon 6:44 PM EST (1/27) 7:49 AM EST (1/27)
Length of Visible Light 10h 50m
Length of Day
9h 50m
Full, 100% of the Moon is Illuminated
Jan 27
Full
Feb 3
Last Quarter
Feb 10
New
Feb 17
First Quarter
Feb 25
Full

Hourly Weather History & Observations

Time (EST) Temp. Windchill Dew Point Humidity Pressure Visibility Wind Dir Wind Speed Gust Speed Precip Events Conditions
12:53 AM 19.9 °F 14.9 °F 15.1 °F 81% 30.45 in 10.0 mi SSE 3.5 mph - N/A   Clear
1:53 AM 15.1 °F 9.4 °F 10.9 °F 84% 30.44 in 10.0 mi SE 3.5 mph - N/A   Clear
2:53 AM 15.1 °F - 10.0 °F 80% 30.45 in 10.0 mi Calm Calm - N/A   Overcast
3:53 AM 18.0 °F 8.7 °F 12.9 °F 81% 30.43 in 10.0 mi SSE 6.9 mph - N/A   Mostly Cloudy
4:53 AM 19.9 °F 12.1 °F 12.9 °F 74% 30.44 in 10.0 mi SSE 5.8 mph - N/A   Overcast
5:53 AM 19.9 °F 12.1 °F 12.9 °F 74% 30.44 in 10.0 mi SSE 5.8 mph - N/A   Overcast
6:53 AM 19.0 °F 10.0 °F 12.0 °F 74% 30.44 in 10.0 mi SSE 6.9 mph - N/A   Mostly Cloudy
7:53 AM 19.9 °F 13.4 °F 12.9 °F 74% 30.44 in 10.0 mi SE 4.6 mph - N/A   Overcast
8:53 AM 21.0 °F 13.4 °F 14.0 °F 74% 30.44 in 10.0 mi SSE 5.8 mph - N/A   Mostly Cloudy
9:53 AM 21.9 °F 10.4 °F 15.1 °F 75% 30.43 in 10.0 mi South 11.5 mph - N/A   Scattered Clouds
10:53 AM 25.0 °F 13.1 °F 15.1 °F 66% 30.43 in 10.0 mi South 13.8 mph 23.0 mph N/A   Overcast
11:53 AM 26.1 °F 14.0 °F 15.1 °F 63% 30.44 in 10.0 mi South 15.0 mph - N/A   Overcast
12:53 PM 27.0 °F 17.3 °F 15.1 °F 61% 30.40 in 10.0 mi South 10.4 mph - N/A   Overcast
1:53 PM 28.0 °F 20.8 °F 17.1 °F 63% 30.37 in 10.0 mi SSE 6.9 mph - 0.00 in   Overcast
2:53 PM 28.0 °F 18.6 °F 16.0 °F 61% 30.30 in 10.0 mi SE 10.4 mph - 0.00 in   Overcast
3:53 PM 28.9 °F 20.4 °F 17.1 °F 61% 30.30 in 10.0 mi SSE 9.2 mph - N/A   Overcast
4:53 PM 28.9 °F 19.8 °F 18.0 °F 64% 30.31 in 8.0 mi SE 10.4 mph - N/A   Overcast
5:10 PM 28.4 °F 18.5 °F 19.4 °F 69% 30.25 in 5.0 mi SE 11.5 mph - 0.00 in Snow Light Snow
5:53 PM 28.0 °F 19.3 °F 21.0 °F 75% 30.28 in 4.0 mi SE 9.2 mph - 0.00 in Snow Light Snow
6:01 PM 28.4 °F 19.7 °F 21.2 °F 74% 30.22 in 6.0 mi SE 9.2 mph - 0.00 in Snow Light Snow
6:12 PM 28.4 °F 20.4 °F 21.2 °F 74% 30.21 in 7.0 mi ESE 8.1 mph - 0.00 in Snow Light Snow
6:18 PM 28.4 °F 18.5 °F 21.2 °F 74% 30.19 in 1.8 mi ESE 11.5 mph - 0.00 in Snow Light Snow
6:24 PM 26.6 °F 16.8 °F 21.2 °F 80% 30.19 in 0.8 mi ESE 10.4 mph - 0.00 in Snow Light Snow
6:44 PM 26.6 °F 19.1 °F 24.8 °F 93% 30.21 in 1.5 mi ESE 6.9 mph - 0.01 in Snow Light Snow
6:53 PM 27.0 °F 20.5 °F 23.0 °F 85% 30.26 in 2.0 mi ESE 5.8 mph - 0.01 in Snow Light Snow
6:57 PM 26.6 °F 19.1 °F 23.0 °F 86% 30.20 in 3.0 mi ESE 6.9 mph - 0.00 in Snow Light Snow
7:05 PM 26.6 °F 16.8 °F 23.0 °F 86% 30.19 in 5.0 mi ESE 10.4 mph - 0.01 in   Overcast
7:45 PM 26.6 °F 16.2 °F 23.0 °F 86% 30.14 in 1.8 mi ESE 11.5 mph 23.0 mph 0.04 in Snow Light Snow
7:53 PM 27.0 °F 15.6 °F 23.0 °F 85% 30.18 in 1.5 mi SE 13.8 mph 20.7 mph 0.04 in Snow Light Snow
7:57 PM 26.6 °F 14.3 °F 21.2 °F 80% 30.14 in 3.0 mi SE 16.1 mph 21.9 mph 0.00 in Snow Light Snow
8:05 PM 26.6 °F 13.4 °F 21.2 °F 80% 30.12 in 6.0 mi SE 18.4 mph 24.2 mph 0.00 in   Overcast
8:26 PM 28.4 °F 18.5 °F 21.2 °F 74% 30.14 in 7.0 mi SSE 11.5 mph 24.2 mph 0.00 in   Overcast
8:33 PM 28.4 °F 18.0 °F 21.2 °F 74% 30.13 in 7.0 mi SSE 12.7 mph 24.2 mph 0.00 in   Overcast
8:53 PM 28.0 °F 17.0 °F 23.0 °F 81% 30.17 in 6.0 mi SE 13.8 mph 21.9 mph 0.00 in   Overcast
9:08 PM 28.4 °F 18.0 °F 24.8 °F 86% 30.10 in 5.0 mi SE 12.7 mph - 0.00 in Rain Light Freezing Rain
9:27 PM 28.4 °F 19.1 °F 24.8 °F 86% 30.11 in 6.0 mi SSE 10.4 mph 20.7 mph 0.00 in Rain Light Freezing Rain
9:35 PM 28.4 °F 18.5 °F 24.8 °F 86% 30.10 in 6.0 mi SSE 11.5 mph 21.9 mph 0.00 in   Overcast
9:53 PM 30.0 °F 20.0 °F 25.0 °F 82% 30.11 in 4.0 mi SSE 12.7 mph - 0.03 in Rain Light Freezing Rain
10:14 PM 30.2 °F 17.1 °F 26.6 °F 86% 30.00 in 1.8 mi SSE 21.9 mph 35.7 mph 0.10 in Rain Light Freezing Rain
10:24 PM 30.2 °F 15.9 °F 26.6 °F 86% 30.00 in 2.5 mi South 26.5 mph 39.1 mph 0.13 in Rain Light Freezing Rain
10:31 PM 30.2 °F 17.1 °F 26.6 °F 86% 30.02 in 3.0 mi South 21.9 mph 35.7 mph 0.14 in Rain Light Freezing Rain
10:43 PM 30.2 °F 16.8 °F 26.6 °F 86% 30.02 in 6.0 mi South 23.0 mph 31.1 mph 0.14 in Rain Light Freezing Rain
10:53 PM 30.9 °F 17.2 °F 27.0 °F 85% 30.05 in 4.0 mi South 25.3 mph 36.8 mph 0.15 in Snow Light Snow
11:13 PM 30.2 °F 17.4 °F 28.4 °F 93% 30.03 in 7.0 mi South 20.7 mph 25.3 mph 0.01 in   Overcast
11:34 PM 32.0 °F 20.8 °F 28.4 °F 87% 30.03 in 5.0 mi South 17.3 mph 24.2 mph 0.01 in Rain Light Freezing Rain
11:44 PM 32.0 °F 22.1 °F 28.4 °F 87% 30.03 in 5.0 mi South 13.8 mph - 0.02 in Rain Light Freezing Rain
11:53 PM 32.0 °F 23.0 °F 28.0 °F 85% 30.07 in 6.0 mi South 11.5 mph 23.0 mph 0.02 in Rain Light Freezing Rain